Regional Weather Roundup
Issued by NWS Little Rock, AR

Home | Current Version | Previous Version | Graphics & Text | Print | Product List | Glossary On
Versions: 1 2 3 4 5 6 7 8 9 10 11 12 13 14 15 16 17 18 19 20 21 22 23 24 25 26 27 28 29 30 31 32 33 34 35 36 37 38 39 40 41 42 43 44 45 46 47 48 49 50
835
ASUS44 KLZK 270905
RWRLZK

WEATHER ROUNDUP FOR ARKANSAS
NATIONAL WEATHER SERVICE LITTLE ROCK AR
400 AM CDT SAT AUG 27 2016

NOTE: "FAIR" INDICATES FEW OR NO CLOUDS BELOW 12,000 FEET WITH NO
SIGNIFICANT WEATHER AND/OR OBSTRUCTIONS TO VISIBILITY.

ARZ001-003-010-029-271000-
NORTHWEST ARKANSAS

CITY           SKY/WX    TMP DP  RH WIND       PRES   REMARKS
FAYETTEVILLE   PTCLDY    68  68 100 S3        30.05F
FORT SMITH     MOCLDY    75  72  90 E5        30.01S
HARRISON       CLEAR     70  69  97 CALM      30.07S
BENTONVILLE    MOCLDY    72  66  83 SE3       30.06R
ROGERS         CLOUDY    71  70  96 SE5       30.06S
SILOAM SPGS    CLOUDY    70  61  73 CALM      30.06S
HIGHFILL       CLOUDY    71  70  96 S3        30.05S
$$

ARZ004-005-016-271000-
NORTH CENTRAL ARKANSAS

CITY           SKY/WX    TMP DP  RH WIND       PRES   REMARKS
BATESVILLE     CLOUDY    72  70  94 W3        30.05R
FLIPPIN        PTCLDY    70  66  88 CALM      30.03S
MTN HOME       CLOUDY    71  71 100 CALM      30.06S
$$

ARZ040-041-271000-
WEST CENTRAL ARKANSAS

CITY           SKY/WX    TMP DP  RH WIND       PRES   REMARKS
MENA           CLOUDY    73  72  94 CALM      30.05S
MOUNT IDA      PTCLDY    73  71  93 CALM      30.02R
$$

ARZ009-017-025-026-028-271000-
NORTHEAST ARKANSAS

CITY           SKY/WX    TMP DP  RH WIND       PRES   REMARKS
CORNING          N/A     72  72 100 CALM      30.04S
JONESBORO      MOCLDY    71  69  93 NE3       30.02F
NEWPORT        CLOUDY    70  70 100 N5        30.03
WALNUT RIDGE   PTCLDY    72  70  94 CALM      30.03F
BLYTHEVILLE    CLEAR     71  70  96 N3        30.03S
$$

ARZ022-023-033-042-044-271000-
CENTRAL ARKANSAS

CITY           SKY/WX    TMP DP  RH WIND       PRES   REMARKS
LITTLE ROCK    PTCLDY    77  72  84 SE3       30.02R
JACKSONVILLE   CLOUDY    73  73 100 CALM      30.02S
SEARCY         CLOUDY    74  74 100 N3        30.04S
HOT SPRINGS    CLEAR     74  71  91 E5        30.03R
RUSSELLVILLE   PTCLDY    72  71  97 CALM      30.03R
$$

ARZ036-271000-
EAST ARKANSAS

CITY           SKY/WX    TMP DP  RH WIND       PRES   REMARKS
WEST MEMPHIS   CLEAR     71  70  96 SE5       30.00F
$$

ARZ050-053-066-070-073-271000-
SOUTHWEST ARKANSAS

CITY           SKY/WX    TMP DP  RH WIND       PRES   REMARKS
ARKADELPHIA    FAIR      75  74  96 CALM      30.02R
TEXARKANA      PTCLDY    73  71  93 CALM      30.00R
EL DORADO      CLEAR     71  71 100 NE3       30.00S
DE QUEEN       MOCLDY    75  75 100 CALM      29.99R
$$

ARZ056-057-069-271000-
SOUTHEAST ARKANSAS

CITY           SKY/WX    TMP DP  RH WIND       PRES   REMARKS
PINE BLUFF     CLOUDY    73  72  96 CALM      30.00F
STUTTGART      PTCLDY    75  72  88 CALM      30.02S
MONTICELLO     PTCLDY    76  73  91 E3        30.00S

$$






USA.gov is the U.S. government's official web portal to all federal, state and local government web resources and services.